Weather History for KARM - May, 2013

Change the Weather History Date:

Friday, May 10, 2013

  Actual Average (KPSX) Record (KPSX)
Temperature  
Mean Temperature 72 °F -  
Max Temperature 80 °F 81 °F 91 °F (1998)
Min Temperature 64 °F 67 °F 51 °F (1961)
Cooling Degree Days 7    
Growing Degree Days 22 (Base 50)    
Moisture  
Dew Point 69 °F    
Average Humidity 86    
Maximum Humidity 97    
Minimum Humidity 66    
Precipitation  
Precipitation 0.00 in - - ()
Sea Level Pressure  
Sea Level Pressure 29.92 in    
Wind  
Wind Speed 6 mph (ESE)    
Max Wind Speed 29 mph    
Max Gust Speed 44 mph    
Visibility 7 miles    
Events Rain , Thunderstorm    
Averages and records for this station are not official NWS values.
T = Trace of Precipitation, MM = Missing Value Source: NWS Daily Summary

Daily Weather History Graph

Daily Weather History Graph

Search for Another Location

Airport or City:

Trip Planner

Search our weather history database for the weather conditions in past years. The results will help you decide how hot, cold, wet, or windy it might be!

Date:

Astronomy

May. 10, 2013 Rise Set
Actual Time 6:35 AM CDT 8:06 PM CDT
Civil Twilight 6:10 AM CDT 8:32 PM CDT
Nautical Twilight 5:39 AM CDT 9:03 PM CDT
Astronomical Twilight 5:07 AM CDT 9:35 PM CDT
Moon 7:01 AM CDT (5/10) 8:55 PM CDT (5/10)
Length of Visible Light 14h 22m
Length of Day
13h 31m
New Moon, 0% of the Moon is Illuminated
May 10
New Moon
May 17
First Quarter
May 24
Full
May 31
Last Quarter
Jun 8
New

Hourly Weather History & Observations

Time (CDT) Temp. Heat Index Dew Point Humidity Pressure Visibility Wind Dir Wind Speed Gust Speed Precip Events Conditions
12:15 AM 73.6 °F - 71.6 °F 93% 29.93 in 7.0 mi ESE 3.5 mph - N/A   Overcast
12:55 AM 73.6 °F - 71.6 °F 93% 29.93 in 5.0 mi SSE 6.9 mph - N/A   Overcast
1:15 AM 73.6 °F - 71.8 °F 94% 29.94 in 4.0 mi Calm Calm - N/A   Overcast
1:35 AM 73.6 °F - 72.0 °F 95% 29.95 in 3.0 mi Calm Calm - N/A Thunderstorm Drizzle
1:55 AM 73.6 °F - 72.1 °F 95% 29.95 in 2.5 mi Calm Calm - N/A Rain Rain
2:15 AM 73.2 °F - 71.8 °F 95% 29.93 in 2.5 mi Calm Calm - N/A   Mist
2:35 AM 72.9 °F - 71.6 °F 96% 29.91 in 2.5 mi Calm Calm - N/A   Overcast
2:55 AM 72.7 °F - 71.6 °F 96% 29.91 in 1.8 mi NE 3.5 mph - N/A   Overcast
3:15 AM 72.9 °F - 71.8 °F 96% 29.88 in 3.0 mi ESE 5.8 mph - N/A   Overcast
3:35 AM 72.9 °F - 71.8 °F 96% 29.87 in 3.0 mi SE 5.8 mph - N/A   Overcast
3:55 AM 73.0 °F - 72.0 °F 96% 29.86 in 4.0 mi SSE 6.9 mph - N/A   Overcast
4:15 AM 73.4 °F - 72.1 °F 96% 29.85 in 4.0 mi SSE 5.8 mph - N/A   Overcast
4:35 AM 73.4 °F - 72.1 °F 96% 29.84 in 4.0 mi SSE 10.4 mph - N/A   Overcast
4:55 AM 72.9 °F - 71.8 °F 96% 29.83 in 4.0 mi South 9.2 mph - N/A   Overcast
5:15 AM 72.9 °F - 71.8 °F 96% 29.83 in 4.0 mi South 11.5 mph 19.6 mph N/A   Overcast
5:35 AM 72.9 °F - 71.8 °F 96% 29.84 in 4.0 mi SSE 8.1 mph - N/A   Overcast
5:55 AM 72.9 °F - 71.8 °F 96% 29.84 in 4.0 mi SSE 8.1 mph - N/A   Mostly Cloudy
6:15 AM 72.7 °F - 71.6 °F 96% 29.85 in 4.0 mi SE 8.1 mph - N/A   Mostly Cloudy
6:35 AM 72.7 °F - 71.6 °F 96% 29.88 in 4.0 mi SE 5.8 mph - N/A   Overcast
7:15 AM 72.7 °F - 71.6 °F 96% 29.90 in 2.5 mi SE 4.6 mph - N/A   Overcast
7:35 AM 73.0 °F - 71.8 °F 96% 29.92 in 2.5 mi ENE 4.6 mph - N/A   Overcast
8:15 AM 73.4 °F - 72.0 °F 95% 29.92 in 3.0 mi ENE 4.6 mph - N/A   Overcast
8:35 AM 73.4 °F - 72.0 °F 95% 29.93 in 3.0 mi ESE 4.6 mph - N/A   Overcast
8:55 AM 73.4 °F - 72.0 °F 95% 29.93 in 3.0 mi ESE 5.8 mph - N/A   Overcast
9:15 AM 73.6 °F - 72.1 °F 95% 29.89 in 3.0 mi SE 10.4 mph - N/A   Overcast
9:35 AM 73.6 °F - 72.0 °F 95% 29.90 in 4.0 mi SSE 10.4 mph 17.3 mph N/A Thunderstorm Overcast
9:55 AM 73.6 °F - 71.6 °F 93% 29.92 in 5.0 mi South 8.1 mph - N/A Thunderstorm Overcast
10:15 AM 73.6 °F - 71.6 °F 93% 29.94 in 4.0 mi SSW 8.1 mph - N/A Rain , Thunderstorm Thunderstorms and Rain
10:35 AM 66.4 °F - 65.3 °F 96% 29.98 in 1.0 mi North 28.8 mph 43.7 mph N/A Rain , Thunderstorm Heavy Thunderstorms and Rain
10:55 AM 65.7 °F - 64.8 °F 97% 30.05 in 4.0 mi NW 11.5 mph - N/A Rain , Thunderstorm Thunderstorms and Rain
11:15 AM 64.6 °F - 63.7 °F 97% 29.85 in 7.0 mi ENE 24.2 mph 29.9 mph N/A Rain , Thunderstorm Light Thunderstorms and Rain
11:35 AM 64.8 °F - 63.9 °F 97% 29.96 in 10.0 mi NE 6.9 mph - N/A Rain Light Rain
12:15 PM 67.6 °F - 66.7 °F 97% 29.95 in 10.0 mi ENE 12.7 mph - N/A   Clear
12:35 PM 68.9 °F - 67.8 °F 96% 29.94 in 10.0 mi East 12.7 mph - N/A   Clear
12:55 PM 70.9 °F - 66.4 °F 86% 29.95 in 10.0 mi East 11.5 mph - N/A   Clear
1:15 PM 72.0 °F - 66.6 °F 83% 29.94 in 10.0 mi East 10.4 mph - N/A   Clear
1:35 PM 74.3 °F - 66.9 °F 78% 29.95 in 10.0 mi East 13.8 mph 18.4 mph N/A   Clear
1:55 PM 74.3 °F - 66.9 °F 78% 29.94 in 10.0 mi ESE 13.8 mph - N/A   Scattered Clouds
2:15 PM 75.6 °F - 67.1 °F 75% 29.93 in 10.0 mi East 11.5 mph - N/A   Clear
2:35 PM 76.1 °F - 66.9 °F 73% 29.92 in 10.0 mi East 9.2 mph - N/A   Clear
2:55 PM 77.0 °F - 66.7 °F 70% 29.92 in 10.0 mi East 5.8 mph - N/A   Clear
3:15 PM 77.5 °F - 66.2 °F 68% 29.91 in 10.0 mi East 5.8 mph - N/A   Clear
3:35 PM 78.1 °F - 66.6 °F 68% 29.90 in 10.0 mi East 6.9 mph - N/A   Clear
3:55 PM 78.8 °F - 66.4 °F 66% 29.89 in 10.0 mi ESE 5.8 mph - N/A   Clear
4:15 PM 79.7 °F - 67.3 °F 66% 29.88 in 10.0 mi ENE 6.9 mph - N/A   Clear
4:35 PM 79.9 °F - 68.0 °F 67% 29.87 in 10.0 mi ENE 4.6 mph - N/A   Clear
4:55 PM 80.4 °F 83.1 °F 68.2 °F 66% 29.87 in 10.0 mi ENE 3.5 mph - N/A   Clear
5:15 PM 79.5 °F - 68.2 °F 68% 29.87 in 10.0 mi Calm Calm - N/A   Scattered Clouds
5:35 PM 80.6 °F 83.5 °F 68.7 °F 67% 29.87 in 10.0 mi East 3.5 mph - N/A   Mostly Cloudy
5:55 PM 79.7 °F - 68.9 °F 69% 29.88 in 10.0 mi ENE 3.5 mph - N/A   Mostly Cloudy
6:15 PM 79.9 °F - 67.6 °F 66% 29.88 in 10.0 mi ESE 4.6 mph - N/A   Mostly Cloudy
6:35 PM 79.7 °F - 67.5 °F 66% 29.88 in 10.0 mi ESE 4.6 mph - N/A   Scattered Clouds
6:55 PM 77.9 °F - 68.4 °F 72% 29.87 in 10.0 mi ESE 5.8 mph - N/A   Clear
7:15 PM 76.5 °F - 68.9 °F 77% 29.87 in 10.0 mi ESE 4.6 mph - N/A   Clear
7:35 PM 75.9 °F - 68.7 °F 78% 29.88 in 10.0 mi Calm Calm - N/A   Clear
7:55 PM 74.7 °F - 67.1 °F 77% 29.89 in 10.0 mi ESE 4.6 mph - N/A   Scattered Clouds
8:15 PM 73.6 °F - 67.1 °F 80% 29.90 in 10.0 mi ESE 3.5 mph - N/A   Scattered Clouds
8:35 PM 72.5 °F - 66.7 °F 82% 29.90 in 10.0 mi ESE 5.8 mph - N/A   Clear
8:55 PM 71.8 °F - 66.4 °F 83% 29.91 in 10.0 mi ESE 6.9 mph - N/A   Clear
9:15 PM 72.1 °F - 66.4 °F 82% 29.95 in 10.0 mi East 3.5 mph - N/A   Mostly Cloudy
9:35 PM 72.1 °F - 66.6 °F 83% 29.97 in 10.0 mi NNE 3.5 mph - N/A   Overcast
9:55 PM 71.6 °F - 66.7 °F 85% 30.00 in 10.0 mi Calm Calm - N/A   Overcast
10:15 PM 71.8 °F - 66.9 °F 85% 30.01 in 10.0 mi Calm Calm - N/A   Overcast
10:35 PM 71.8 °F - 67.1 °F 85% 30.03 in 10.0 mi NW 6.9 mph - N/A   Overcast
10:55 PM 72.1 °F - 67.1 °F 84% 30.02 in 10.0 mi North 6.9 mph - N/A   Overcast
11:15 PM 71.6 °F - 66.4 °F 84% 30.01 in 10.0 mi NNE 6.9 mph - N/A   Overcast
11:35 PM 69.3 °F - 64.4 °F 84% 30.00 in 10.0 mi NNE 10.4 mph 17.3 mph N/A   Scattered Clouds
11:55 PM 68.4 °F - 63.1 °F 83% 30.00 in 10.0 mi NE 11.5 mph - N/A   Scattered Clouds